Regional Weather Roundup
Issued by NWS Sioux Falls, SD

Home | Current Version | Previous Version | Graphics & Text | Print | Product List | Glossary Off
Versions: 1 2 3 4 5 6 7 8 9 10 11 12 13 14 15 16 17 18 19 20 21 22 23 24 25 26 27 28 29 30 31 32 33 34 35 36 37 38 39 40 41 42 43 44 45 46 47 48 49 50

000
ASUS43 KFSD 282210
RWRFSD

WEATHER ROUNDUP FOR SE SOUTH DAKOTA/SW MINNESOTA/NW IOWA
NATIONAL WEATHER SERVICE SIOUX FALLS SD
500 PM CDT THU AUG 28 2014

NOTE: "FAIR" INDICATES FEW OR NO CLOUDS BELOW 12,000 FEET WITH NO
SIGNIFICANT WEATHER AND OR OBSTRUCTIONS TO VISIBILITY.


SDZ038>040-050-052>070-282300-
SOUTHEAST SOUTH DAKOTA

CITY           SKY/WX    TMP DP  RH WIND       PRES   REMARKS
CHAMBERLAIN    PTSUNNY   77  68  74 NW8       29.83F
HURON          CLOUDY    72  67  84 E6        29.84S
MADISON        MOCLDY    70  70 100 E6        29.87F
MITCHELL       PTSUNNY   77  70  79 E8        29.82F
SIOUX FALLS    CLOUDY    73  69  87 E13       29.87S
WINNER         FAIR      79  65  62 NW9       29.85S
YANKTON        PTSUNNY   79  73  83 E9        29.81F
$$

MNZ071-072-080-081-089-090-097-098-282300-
SOUTHWEST MINNESOTA

CITY           SKY/WX    TMP DP  RH WIND       PRES   REMARKS
FAIRMONT       CLOUDY    66  63  88 SE12      29.92F
JACKSON        CLOUDY    70  64  83 SE8       29.92F
LUVERNE        CLOUDY    72  68  88 SE8       29.88F
MARSHALL       CLOUDY    68  64  88 SE9       29.89F
MONTEVIDEO     DRIZZLE   64  64 100 S10       29.92F
PIPESTONE      CLOUDY    70  68  94 SE8       29.89F
REDWOOD FALLS  CLOUDY    68  66  93 E7        29.91F
TRACY          CLOUDY    69  68  95 E7        29.90F
WINDOM         CLOUDY    70  66  88 E9        29.91F
WORTHINGTON    CLOUDY    70  66  88 SE9       29.91F
$$

IAZ001>003-012>014-020>022-031-032-NEZ013-014-SDZ071-282300-
NORTHWEST IOWA

CITY           SKY/WX    TMP DP  RH WIND       PRES   REMARKS
DENISON        PTSUNNY   77  73  88 S7        29.87F
ESTHERVILLE    CLOUDY    67  66  97 E8        29.91F
LE MARS        CLOUDY    79  73  83 S9        29.85F
ORANGE CITY    CLOUDY    75  70  83 E5        29.87F
SHELDON        PTSUNNY   72  70  94 E7        29.87F
SIOUX CITY     CLOUDY    80  72  76 S8        29.84F
SPENCER        CLOUDY    70  68  93 E8        29.90F
STORM LAKE     PTSUNNY   75  75 100 SE10      29.89F FOG
$$

ABBREVIATIONS USED IN REMARKS
   TC - TEMPERATURE IN CELSIUS
  WCI - WIND CHILL INDEX
   HX - HEAT INDEX
  VSB - VISIBILITY



USA.gov is the U.S. government's official web portal to all federal, state and local government web resources and services.